Location: Unspecified
(52.4292°N, 19.3359°E)
Time: 23:45:11
(UTC+02:00)

A-11 Canister half - Pass Details

Date: 26 May 2024
Orbit: 1515 x 1685 km, 47.2° (Epoch: 19 June)

Event Time Altitude Azimuth Distance (km) Brightness Sun altitude
Rises 05:44:09 0° 272° (W) 4,728 11.0 8.6°
Reaches altitude 10° 05:47:16 10° 269° (W) 3,725 10.5 9.1°
Maximum altitude 05:56:24 60° 193° (SSW) 1,703 9.3 10.4°
Drops below altitude 10° 06:05:24 10° 116° (ESE) 3,673 11.8 11.6°
Sets 06:08:28 0° 113° (ESE) 4,658 12.3 12.1°
